Chatham, MA

5:26 AM EDT on May 25, 2017 (GMT -0400)
Chatham Municipal

Weather History for KCQX - February, 2013

Change the Weather History Date:

Wednesday, February 27, 2013

  Actual Average Record
Temperature  
Mean Temperature 43 °F -  
Max Temperature 45 °F 39 °F 56 °F (1976)
Min Temperature 41 °F 26 °F 8 °F (2015)
Degree Days  
Heating Degree Days 22    
Moisture  
Dew Point 41 °F    
Average Humidity 93    
Maximum Humidity 100    
Minimum Humidity 76    
Precipitation  
Precipitation 0.63 in - - ()
Sea Level Pressure  
Sea Level Pressure 29.78 in    
Wind  
Wind Speed 15 mph (ESE)    
Max Wind Speed 26 mph    
Max Gust Speed 43 mph    
Visibility 4 miles    
Events Rain    
Averages and records for this station are not official NWS values.
T = Trace of Precipitation, MM = Missing Value Source: NWS Daily Summary

Daily Weather History Graph

Daily Weather History Graph

Search for Another Location

Airport or City:

Trip Planner

Search our weather history database for the weather conditions in past years. The results will help you decide how hot, cold, wet, or windy it might be!

Date:

Astronomy

Feb. 27, 2013 Rise Set
Actual Time 6:17 AM EST 5:28 PM EST
Civil Twilight 5:49 AM EST 5:56 PM EST
Nautical Twilight 5:17 AM EST 6:28 PM EST
Astronomical Twilight 4:45 AM EST 7:00 PM EST
Moon 7:48 PM EST (2/27) 6:48 AM EST (2/27)
Length of Visible Light 12h 06m
Length of Day
11h 10m
Waning Gibbous, 96% of the Moon is Illuminated
Feb 27
Waning Gibbous
Mar 4
Last Quarter
Mar 11
New
Mar 19
First Quarter
Mar 27
Full

Hourly Weather History & Observations

Time (EST) Temp. Windchill Dew Point Humidity Pressure Visibility Wind Dir Wind Speed Gust Speed Precip Events Conditions
12:52 AM 41.0 °F 35.2 °F 36.0 °F 82% 30.13 in 10.0 mi East 9.2 mph 18.4 mph N/A   Overcast
1:07 AM 42.8 °F 36.6 °F 35.6 °F 76% 30.11 in 10.0 mi East 11.5 mph - N/A   Overcast
1:52 AM 42.1 °F 35.2 °F 37.9 °F 85% 30.09 in 10.0 mi East 12.7 mph 19.6 mph 0.00 in Rain Light Rain
2:52 AM 42.1 °F 36.1 °F 39.9 °F 92% 30.04 in 10.0 mi East 10.4 mph 18.4 mph 0.01 in   Overcast
3:52 AM 43.0 °F 36.4 °F 39.9 °F 89% 30.04 in 10.0 mi East 12.7 mph 21.9 mph 0.00 in Rain Light Rain
4:38 AM 42.8 °F 35.4 °F 41.0 °F 93% 30.03 in 5.0 mi East 15.0 mph 21.9 mph 0.04 in Rain Rain
4:48 AM 42.8 °F 35.4 °F 41.0 °F 93% 30.02 in 5.0 mi East 15.0 mph 25.3 mph 0.06 in Rain Rain
4:52 AM 43.0 °F 36.0 °F 41.0 °F 93% 30.02 in 5.0 mi ESE 13.8 mph 25.3 mph 0.07 in Rain Rain
5:52 AM 43.0 °F 35.4 °F 41.0 °F 93% 30.00 in 9.0 mi East 16.1 mph 25.3 mph 0.04 in Rain Light Rain
6:52 AM 43.0 °F 35.4 °F 41.0 °F 93% 29.96 in 7.0 mi East 16.1 mph 29.9 mph 0.01 in Rain Light Rain
7:20 AM 42.8 °F 33.3 °F 41.0 °F 93% 29.94 in 4.0 mi East 24.2 mph 31.1 mph 0.04 in Rain Light Rain
7:47 AM 42.8 °F 34.3 °F 41.0 °F 93% 29.92 in 5.0 mi East 19.6 mph 34.5 mph 0.05 in Rain Light Rain
7:52 AM 43.0 °F 34.8 °F 41.0 °F 93% 29.93 in 5.0 mi East 18.4 mph 32.2 mph 0.05 in Rain Light Rain
8:52 AM 43.0 °F 33.1 °F 41.0 °F 93% 29.91 in 4.0 mi East 26.5 mph 34.5 mph 0.05 in Rain Light Rain
9:13 AM 42.8 °F 34.0 °F 41.0 °F 93% 29.90 in 3.0 mi ESE 20.7 mph 32.2 mph 0.04 in Rain Rain
9:30 AM 42.8 °F 33.8 °F 41.0 °F 93% 29.89 in 3.0 mi East 21.9 mph 36.8 mph 0.06 in Rain Rain
9:52 AM 43.0 °F 33.8 °F 41.0 °F 93% 29.89 in 3.0 mi ESE 23.0 mph 36.8 mph 0.08 in Rain Light Rain
10:52 AM 43.0 °F 33.3 °F 41.0 °F 93% 29.85 in 2.0 mi East 25.3 mph 33.4 mph 0.08 in Rain Rain
11:50 AM 42.8 °F 34.0 °F 39.2 °F 87% 29.78 in 3.0 mi East 20.7 mph 42.6 mph 0.04 in Rain Light Rain
11:52 AM 42.1 °F 33.6 °F 39.9 °F 92% 29.79 in 3.0 mi East 18.4 mph 42.6 mph 0.04 in Rain Light Rain
12:01 PM 42.8 °F 34.0 °F 39.2 °F 87% 29.78 in 1.8 mi East 20.7 mph 35.7 mph 0.02 in Rain Rain
12:13 PM 42.8 °F 33.8 °F 39.2 °F 87% 29.77 in 2.0 mi East 21.9 mph 38.0 mph 0.05 in Rain Rain
12:43 PM 42.8 °F 33.5 °F 39.2 °F 87% 29.75 in 1.8 mi East 23.0 mph 36.8 mph 0.08 in Rain Rain
12:50 PM 42.8 °F 33.5 °F 39.2 °F 87% 29.75 in 2.0 mi East 23.0 mph 36.8 mph 0.08 in Rain Light Rain
12:52 PM 42.1 °F 32.8 °F 41.0 °F 96% 29.76 in 2.5 mi East 21.9 mph 36.8 mph 0.08 in Rain Light Rain
1:52 PM 43.0 °F 34.2 °F 41.0 °F 93% 29.73 in 2.0 mi East 20.7 mph 32.2 mph 0.07 in Rain Light Rain
2:16 PM 42.8 °F 34.0 °F 41.0 °F 93% 29.71 in 3.0 mi East 20.7 mph 33.4 mph 0.00 in Rain Light Rain
2:52 PM 43.0 °F 35.1 °F 41.0 °F 93% 29.69 in 5.0 mi East 17.3 mph 31.1 mph 0.00 in Rain Light Rain
3:52 PM 44.1 °F 35.7 °F 42.1 °F 93% 29.64 in 6.0 mi East 20.7 mph 36.8 mph 0.00 in   Overcast
4:52 PM 44.1 °F 39.0 °F 43.0 °F 96% 29.62 in 5.0 mi East 9.2 mph 31.1 mph 0.02 in Rain Light Rain
5:07 PM 44.6 °F 37.4 °F 42.8 °F 93% 29.61 in 1.8 mi East 16.1 mph 29.9 mph 0.01 in Rain Rain
5:15 PM 44.6 °F 38.1 °F 42.8 °F 93% 29.61 in 2.0 mi East 13.8 mph 26.5 mph 0.02 in Rain Light Rain
5:24 PM 44.6 °F 37.8 °F 42.8 °F 93% 29.61 in 6.0 mi ESE 15.0 mph 32.2 mph 0.02 in Rain Light Rain
5:52 PM 45.0 °F 38.2 °F 43.0 °F 93% 29.61 in 5.0 mi East 15.0 mph 24.2 mph 0.02 in   Overcast
6:52 PM 45.0 °F 38.5 °F 44.1 °F 97% 29.59 in 2.5 mi ESE 13.8 mph 18.4 mph 0.00 in Rain Light Rain
6:56 PM 44.6 °F 38.8 °F 44.6 °F 100% 29.58 in 3.0 mi SE 11.5 mph 19.6 mph 0.00 in Rain Light Rain
7:49 PM 44.6 °F 40.7 °F 44.6 °F 100% 29.57 in 2.0 mi Variable 6.9 mph - 0.01 in   Overcast
7:52 PM 45.0 °F 40.1 °F 45.0 °F 100% 29.57 in 1.8 mi SE 9.2 mph - 0.01 in   Overcast
8:48 PM 42.8 °F 37.5 °F 42.8 °F 100% 29.57 in 1.0 mi SW 9.2 mph 19.6 mph N/A   Mist
8:52 PM 42.1 °F 37.1 °F 42.1 °F 100% 29.58 in 1.0 mi SW 8.1 mph 19.6 mph N/A   Mist
9:09 PM 41.0 °F 35.8 °F 41.0 °F 100% 29.58 in 0.8 mi SW 8.1 mph 17.3 mph N/A   Mist
9:52 PM 41.0 °F 33.9 °F 39.9 °F 96% 29.60 in 0.8 mi SW 12.7 mph 19.6 mph N/A   Mist
10:26 PM 41.0 °F 35.2 °F 41.0 °F 100% 29.59 in 1.5 mi SSW 9.2 mph 19.6 mph N/A   Overcast
10:42 PM 41.0 °F 35.2 °F 41.0 °F 100% 29.59 in 3.0 mi SW 9.2 mph 17.3 mph N/A   Overcast
10:52 PM 41.0 °F 35.2 °F 41.0 °F 100% 29.60 in 4.0 mi SW 9.2 mph 17.3 mph N/A   Overcast
11:52 PM 41.0 °F 35.2 °F 39.9 °F 96% 29.60 in 4.0 mi SW 9.2 mph 17.3 mph N/A   Overcast